Regional Weather Roundup
Issued by NWS

Home | Current Version | Previous Version | Graphics & Text | Print | Product List | Glossary On
Versions: 1 2 3 4 5 6 7 8 9 10 11 12 13 14 15 16 17 18 19 20 21 22 23 24 25 26 27 28 29 30 31 32 33 34 35 36 37 38 39 40 41 42 43 44 45 46 47 48 49 50
000
ASUS43 KIND 260309
RWRIN

WEATHER ROUNDUP FOR INDIANA
NATIONAL WEATHER SERVICE INDIANAPOLIS IN
1100 PM EDT MON JUL 25 2016

NOTE: "FAIR" INDICATES FEW OR NO CLOUDS BELOW 12,000 FEET WITH NO
SIGNIFICANT WEATHER AND/OR OBSTRUCTIONS TO VISIBILITY.

* - STATION DOES NOT REPORT WEATHER SUCH AS PRECIPITATION OR FOG.

+ - STATION NOT QUALITY CONTROLLED BY THE NATIONAL WEATHER SERVICE.
    USE DATA WITH CAUTION...ESPECIALLY DEWPOINT AND RELATIVE
    HUMIDITY OBSERVATIONS.

INZ001>003-010>013-019-020-260400-
NORTHWEST INDIANA

CITY           SKY/WX    TMP DP  RH WIND       PRES   REMARKS
GARY /AIRPORT/ MOCLDY    72  72 100 CALM      30.02R
KNOX *+        MOCLDY    68  66  94 CALM      30.02S
LA PORTE +     CLOUDY    71  71 100 CALM      30.04R
MICHIGAN CITY+ PTCLDY    68  68 100 CALM      30.03R
MONTICELLO +   CLEAR     72  62  69 CALM      30.01S
RENSSELAER +   PTCLDY    70  70 100 CALM      30.03R
VALPARAISO     MOCLDY    71  66  84 CALM      30.03R

$$

LMZ046-743>745-260400-
SOUTHERN LAKE MICHIGAN

STATION/POSITION TIME  TEMP    WIND        PRES    WAVE
                       AIR SEA DIR/SP/G            HT
                 (UTC) (F)     (DEG/KT/KT) (MB)    (FT)
BURNS HARBOR     0300   76     100/  5/  7 1016.9R
MICHIGAN CITY    0200   76      40/  5/  5   N/A
5NW MICH CITY    0300   76 75  110/  2/  4   N/A     1

$$

INZ004-005-014>016-021>024-260400-
NORTH CENTRAL INDIANA

CITY           SKY/WX    TMP DP  RH WIND       PRES   REMARKS
GOSHEN         CLOUDY    70  63  78 S3        30.02S
LOGANSPORT +   PTCLDY    68  64  88 CALM      30.03S
PERU/GRISSOM   CLOUDY    71  68  90 N2        30.02R
ROCHESTER +    PTCLDY    73  68  83 CALM      30.03R
SOUTH BEND     CLOUDY    70  64  81 CALM      30.03R
WARSAW +       PTCLDY    70  64  83 CALM      30.03R

$$

INZ006>009-017-018-025>027-260400-
NORTHEAST INDIANA

CITY           SKY/WX    TMP DP  RH WIND       PRES   REMARKS
ANGOLA *+      CLEAR     70  63  78 CALM      30.03R
AUBURN +       MOCLDY    72  61  68 NW3       30.03R
FORT WAYNE     PTCLDY    73  65  75 NW3       30.02R
HUNTINGTON +   PTCLDY    72  65  80 CALM      30.02R

$$

INZ028-029-035-036-043>045-051>053-260400-
WEST CENTRAL INDIANA

CITY           SKY/WX    TMP DP  RH WIND       PRES   REMARKS
CRAWFORDSVL +  MOCLDY    73  73 100 CALM      30.03R
GREENCASTLE +  CLOUDY    75  75 100 CALM      30.03R
LAFAYETTE      PTCLDY    73  67  81 NE6       30.01R
TERRE HAUTE    MOCLDY    77  74  90 N3        30.01R

$$

INZ030>032-037>040-046>048-054>057-064-065-260400-
CENTRAL INDIANA

CITY           SKY/WX    TMP DP  RH WIND       PRES   REMARKS
INDIANAPOLIS   MOCLDY    80  70  71 N7        30.02R
-EAGLE CREEK   CLOUDY    79  70  74 N5        30.01R
KOKOMO *+      PTCLDY    73  64  73 N5        30.03R
MARION +       CLOUDY    73  66  80 CALM      30.03R
MT COMFORT *+  CLOUDY    73  72  94 N3        30.03R
SHELBYVILLE    MOCLDY    79  73  82 N5        30.00R
ZIONSVILLE +   MOCLDY    72  70  95 CALM      30.04R

$$

INZ033-034-041-042-049-050-058-059-260400-
EAST CENTRAL INDIANA

CITY           SKY/WX    TMP DP  RH WIND       PRES   REMARKS
MUNCIE         MOCLDY    76  69  79 CALM      30.03R

$$

INZ060-061-067>069-081>083-085>088-260400-
SOUTHWEST INDIANA

CITY           SKY/WX    TMP DP  RH WIND       PRES   REMARKS
EVANSVILLE     MOCLDY    76  72  87 SW5       29.99S
HUNTINGBURG *+ CLOUDY    75  72  88 NE5       30.00S
WASHINGTON +   MOCLDY    77  77 100 MISG      30.00R

$$

INZ062-063-066-070>080-084-089>092-260400-
SOUTH CENTRAL AND SOUTHEAST INDIANA

CITY           SKY/WX    TMP DP  RH WIND       PRES   REMARKS
BLOOMINGTON    PTCLDY    77  74  90 CALM      30.01R
MADISON *+     CLOUDY    75  72  88 CALM      30.04R

$$





USA.gov is the U.S. government's official web portal to all federal, state and local government web resources and services.